Regional Weather Roundup
Issued by NWS

Home | Current Version | Previous Version | Text Only | Print | Product List | Glossary On
Versions: 1 2 3 4 5 6 7 8 9 10 11 12 13 14 15 16 17 18 19 20 21 22 23 24 25 26 27
000
ASUS45 KBOI 240910
RWRID
WEATHER ROUNDUP FOR IDAHO
NATIONAL WEATHER SERVICE BOISE ID
300 AM MDT FRI OCT 24 2014

NOTE: "FAIR" INDICATES FEW OR NO CLOUDS BELOW 12000 FEET
WITH NO SIGNIFICANT WEATHER AND/OR OBSTRUCTIONS TO VISIBILITY

IDZ012-014-241000-
SOUTHWEST IDAHO


CITY           SKY/WX    TMP DP  RH WIND       PRES   REMARKS
BOISE          LGT RAIN  52  49  89 CALM      30.09S
CALDWELL       CLOUDY    52  43  71 E5        30.11R
MOUNTAIN HOME  CLOUDY    51  51 100 SW6       30.09S
$$

IDZ016-017-241000-
SOUTHCENTRAL IDAHO


CITY           SKY/WX    TMP DP  RH WIND       PRES   REMARKS
BURLEY         CLOUDY    48  40  73 SW3       30.12S
JEROME         CLOUDY    51  41  68 SE5       30.12S
TWIN FALLS     HAZE      50  39  66 S6        30.12S VSB 3/4
$$

IDZ019>023-241000-
SOUTHEAST IDAHO


CITY           SKY/WX    TMP DP  RH WIND       PRES   REMARKS
IDAHO FALLS    CLOUDY    53  36  52 S12       30.14R
POCATELLO      MOCLDY    53  39  59 SW8       30.14R
REXBURG        CLOUDY    52  33  48 S14G22    30.11S
$$

IDZ006-010-011-018-031-032-241000-
CENTRAL IDAHO MOUNTAINS


CITY           SKY/WX    TMP DP  RH WIND       PRES   REMARKS
MCCALL         CLOUDY    41  40  96 CALM      30.09R
HAILEY         DRIZZLE   45  43  93 CALM      30.16R
STANLEY          N/A     40  39  97 S3        30.14R
SALMON         CLOUDY    50  39  66 CALM      30.03R
CHALLIS        MOCLDY    47  37  68 CALM      30.06S
$$

IDZ002-004-006-007-026-241000-
NORTHERN IDAHO


CITY           SKY/WX    TMP DP  RH WIND       PRES   REMARKS
LEWISTON       CLOUDY    51  48  89 SE3       30.05R
LOWELL           N/A     51  50  96 CALM      30.08R
COEUR D`ALENE  CLOUDY    46  39  76 SW6       30.01R
MULLAN PASS    CLOUDY    33  31  92 W9G21     30.01S WCI  25
$$



USA.gov is the U.S. government's official web portal to all federal, state and local government web resources and services.